Pagrindinis puslapis
METAR-TAF:

METAR-TAF

Oro uostai :

Odessa-Schlemeyer Field

Odessa, Teksasas, Jungtinės Amerikos Valstijos

platuma: 31-55-17N, ilguma: 102-23-30W, Aukštis: 914 m

Dabartinis oras

Ataskaita buvo paskelbta 50 minutes, ne 10:53 UTC
Vėjas 7 kt iš Pietų/Pietryčių
Temperatūra 15°C
Drėgmė 31%
Slėgis 1021 hPa
Matomumas: 16.1 km
Giedras dangus

METAR: KODO 231053Z AUTO 16007KT 10SM CLR 15/M02 A3016 RMK AO2 SLP175 T01501017

Laikas: 06:43 (11:43 UTC)


TAF: trūkstamas

Orai ataskaitas ir orų prognozės (METAR, TAF).

turimą stotys yra geltonos ir raudonos taškus žemėlapyje.

Perkelti pele per norėdami pamatyti stoties vardą.

Tada spustelėkite, norėdami matyti oro stebėjimo ir prognozės.

Norėdami pakeisti žemėlapį: spustelėkite ant žalios mygtukų su juodo kryžiaus žemyn,; žalią mygtuką su brūkšneliu, jei norite nutolinti; arba žalių rodyklių gretimoms žemėlapius.


METAR-TAF: